Find INTELSAT 602

NORAD ID: 20315 Int'l Des: 1989-087 Owner: INTEL Country: I-INT operational
HEOCIRCULAR

リアルタイム位置

3D地球を読み込み中...

INTELSAT 602について

説明を読み込み中...

次回通過

Passes for default location (London). Set your location on the main map for personalized predictions.

高度履歴

Loading altitude history...

軌道要素

1 20315U 89087A 26106.87214531 -.00000089 00000-0 00000-0 0 9997
2 20315 14.2880 7.9966 0004966 237.4509 292.6152 0.99008068130717
Epoch: Apr 16, 2026 • Age: 22 hours

現在のステータス

高度 36145.7 km
速度 3.06 km/s
衛星直下点 8.94°N, 15.68°E
打ち上げ日 Oct 27, 1989
運用期間 36.4 years
タイプ communications

技術仕様

分類 Payload
質量 4286.00 kg
乾燥質量 1906.00 kg
総質量 4286.00 kg
長さ 11.80 m
直径 3.60 m
スパン 11.80 m
形状 Cyl
製造者 HSES
バスタイプ HS-389
フェーズステータス Renamed
所有者/国 INTEL/I-INT

Most Searched